K5WRW-WX Weather Reports


Display with metric or nautical units.
time (UTC)temp
F
wind
direction
speed
MPH
gust
MPH
rain 1hr
in
rain 24hr
in
rain mn
in
humidity
%
barometer
mb
20260502180516 72 0.0 2.0 0.00 0.00 0.00 34 1020.7
20260502170516 69 225 2.0 2.0 0.00 0.00 0.00 41 1021.1
20260502163516 69 315 6.0 7.0 0.00 0.00 0.00 41 1021.2
20260502162516 68 293 3.0 5.0 0.00 0.00 0.00 39 1021.2
20260502161516 68 315 2.0 5.0 0.00 0.00 0.00 38 1021.0
20260502160516 68 0.0 1.0 0.00 0.00 0.00 41 1021.1
20260502151516 65 23 2.0 4.0 0.00 0.00 0.00 50 1020.9
20260502150515 64 0.0 0.0 0.00 0.00 0.00 50 1020.9
20260502130515 56 315 4.0 6.0 0.00 0.00 0.00 73 1019.9
20260502123515 55 315 3.0 6.0 0.00 0.00 0.00 77 1019.6
20260502122515 54 315 3.0 5.0 0.00 0.00 0.00 79 1019.4
20260502121515 53 315 3.0 4.0 0.00 0.00 0.00 79 1019.3
20260502120517 53 315 1.0 2.0 0.00 0.00 0.00 80 1019.1
20260502115517 52 338 1.0 2.0 0.00 0.00 0.00 80 1018.8
20260502114517 53 0.0 1.0 0.00 0.00 0.00 79 1018.7
20260502113535 53 0.0 0.0 0.00 0.00 0.00 77 1018.7
20260502112537 53 0.0 0.0 0.00 0.00 0.00 74 1018.7
20260502111517 53 0.0 0.0 0.00 0.00 0.00 71 1018.6
20260502110517 54 0.0 0.0 0.00 0.00 0.00 69 1018.4
20260502105517 53 338 1.0 2.0 0.00 0.00 0.00 67 1018.1
20260502104537 53 338 2.0 2.0 0.00 0.00 0.00 67 1018.0
20260502103517 53 0.0 0.0 0.00 0.00 0.00 68 1018.0
20260502102537 52 0.0 0.0 0.00 0.00 0.00 67 1018.0
20260502101517 53 0.0 0.0 0.00 0.00 0.00 67 1018.0
20260502100517 53 0.0 2.0 0.00 0.00 0.00 67 1018.0
20260502090517 53 0.0 0.0 0.00 0.00 0.00 67 1017.5
20260502071516 57 0.0 1.0 0.00 0.00 0.00 59 1017.8
20260502070517 57 0 1.0 2.0 0.00 0.00 0.00 59 1017.8
20260502065516 57 0 2.0 4.0 0.00 0.00 0.00 59 1017.9
20260502064517 57 0.0 2.0 0.00 0.00 0.00 59 1017.9
20260502063516 57 0 1.0 3.0 0.00 0.00 0.00 59 1017.9
20260502062517 58 0 1.0 2.0 0.00 0.00 0.00 58 1017.9
20260502061516 58 0 1.0 2.0 0.00 0.00 0.00 59 1017.9
20260502060516 58 0 1.0 2.0 0.00 0.00 0.00 60 1017.8
20260502055517 57 0 1.0 3.0 0.00 0.00 0.00 62 1017.9
20260502054516 58 0.0 1.0 0.00 0.00 0.00 62 1018.1
20260502053516 58 0.0 2.0 0.00 0.00 0.00 61 1018.0
20260502052556 58 0 1.0 3.0 0.00 0.00 0.00 62 1018.1
20260502051516 59 0.0 1.0 0.00 0.00 0.00 61 1018.0
20260502050516 59 0 2.0 4.0 0.00 0.00 0.00 62 1017.9
20260502045516 59 0 2.0 5.0 0.00 0.00 0.00 62 1017.8
20260502044516 60 23 1.0 4.0 0.00 0.00 0.00 62 1017.8
20260502043516 60 23 4.0 5.0 0.00 0.00 0.00 62 1017.7
20260502042516 60 45 2.0 4.0 0.00 0.00 0.00 62 1017.8
20260502041516 60 0 3.0 5.0 0.00 0.00 0.00 62 1017.8
20260502040516 61 0 2.0 4.0 0.00 0.00 0.00 63 1017.7
20260502035516 61 23 3.0 5.0 0.00 0.00 0.00 63 1017.7
20260502034516 61 45 1.0 2.0 0.00 0.00 0.00 63 1017.7
20260502033516 62 45 1.0 1.0 0.00 0.00 0.00 63 1017.6
20260502032516 62 45 3.0 5.0 0.00 0.00 0.00 63 1017.6
20260502031515 62 0.0 1.0 0.00 0.00 0.00 63 1017.5
20260502030515 63 68 2.0 4.0 0.00 0.00 0.00 62 1017.5
20260502025516 63 45 2.0 4.0 0.00 0.00 0.00 62 1017.4
20260502024516 63 45 2.0 5.0 0.00 0.00 0.00 62 1017.3
20260502023515 63 68 3.0 5.0 0.00 0.00 0.00 61 1017.1
20260502022516 64 68 3.0 4.0 0.00 0.00 0.00 62 1016.9
20260502021515 64 90 2.0 4.0 0.00 0.00 0.00 62 1016.7
20260502020515 64 90 1.0 2.0 0.00 0.00 0.00 62 1016.6
20260502015515 64 68 3.0 5.0 0.00 0.00 0.00 62 1016.4
20260502014516 64 45 1.0 3.0 0.00 0.00 0.00 63 1016.3
20260502013515 65 68 1.0 2.0 0.00 0.00 0.00 63 1016.1
20260502012516 65 68 1.0 2.0 0.00 0.00 0.00 63 1016.0
20260502011516 65 68 1.0 2.0 0.00 0.00 0.00 63 1015.8
20260502010516 65 23 2.0 4.0 0.00 0.00 0.00 63 1015.5
20260502005515 66 68 4.0 5.0 0.00 0.00 0.00 61 1015.4
20260502004515 66 23 6.0 8.0 0.00 0.00 0.00 61 1015.1
20260502003515 65 0 2.0 6.0 0.00 0.00 0.00 64 1015.0
20260502002515 65 338 1.0 4.0 0.00 0.00 0.00 65 1014.9
20260502001515 65 0.0 1.0 0.00 0.00 0.00 66 1014.7
20260502000515 65 248 1.0 2.0 0.00 0.00 0.00 65 1014.7
20260501235515 65 0 1.0 3.0 0.00 0.00 0.00 68 1014.5
20260501234517 65 0 2.0 5.0 0.00 0.00 0.00 67 1014.4
20260501233517 66 0 3.0 7.0 0.00 0.00 0.00 67 1014.3
20260501232517 67 0 5.0 7.0 0.00 0.00 0.00 65 1014.1
20260501231517 67 0 3.0 4.0 0.00 0.00 0.00 62 1014.0
20260501230517 68 158 1.0 3.0 0.00 0.00 0.00 62 1014.0
20260501225517 68 113 2.0 4.0 0.00 0.00 0.00 60 1013.9
20260501224517 68 68 4.0 7.0 0.00 0.00 0.00 59 1013.7
20260501223517 68 0 2.0 8.0 0.00 0.00 0.00 58 1013.6
20260501222517 68 0 3.0 4.0 0.00 0.00 0.00 58 1013.7
20260501221517 68 0.0 0.0 0.00 0.00 0.00 57 1013.6
20260501220517 68 0 2.0 5.0 0.00 0.00 0.00 57 1013.6
20260501215537 68 0.0 1.0 0.00 0.00 0.00 57 1013.5
20260501214517 68 0.0 1.0 0.00 0.00 0.00 57 1013.8
20260501213557 68 135 2.0 5.0 0.00 0.00 0.00 57 1013.8
20260501212537 68 113 1.0 1.0 0.00 0.00 0.00 58 1014.0
20260501211517 68 135 1.0 3.0 0.00 0.00 0.00 58 1014.0
20260501210517 68 158 4.0 7.0 0.00 0.00 0.00 58 1014.2
20260501205517 68 90 2.0 4.0 0.00 0.00 0.00 58 1014.3
20260501204517 68 90 1.0 4.0 0.00 0.00 0.00 58 1014.4
20260501203517 68 338 4.0 6.0 0.00 0.00 0.00 58 1014.4
20260501202517 67 0 3.0 6.0 0.00 0.00 0.00 58 1014.4
20260501201537 67 90 4.0 7.0 0.00 0.00 0.00 57 1014.4
20260501200517 68 68 3.0 5.0 0.00 0.00 0.00 56 1014.5
20260501195517 68 90 6.0 7.0 0.00 0.00 0.00 56 1014.5
20260501194517 67 68 8.0 11.0 0.00 0.00 0.00 55 1014.7
20260501193517 68 68 6.0 10.0 0.00 0.00 0.00 55 1015.0
20260501192517 67 68 8.0 10.0 0.00 0.00 0.00 54 1014.6
20260501191516 67 68 6.0 8.0 0.00 0.00 0.00 54 1014.9
20260501190517 67 90 10.0 15.0 0.00 0.00 0.00 57 1015.0
20260501185537 66 113 6.0 9.0 0.00 0.00 0.00 57 1015.1
20260501184537 66 90 14.0 24.0 0.00 0.00 0.00 56 1015.3
20260501183536 66 68 9.0 11.0 0.00 0.00 0.00 56 1015.5
20260501182516 66 90 15.0 21.0 0.00 0.00 0.00 57 1015.7
20260501181516 66 90 11.0 15.0 0.00 0.00 0.00 58 1015.9